Time,TemperatureF,DewpointF,PressureIn,WindDirection,WindDirectionDegrees,WindSpeedMPH,WindSpeedGustMPH,Humidity,HourlyPrecipIn,Conditions,Clouds,dailyrainin,SoftwareType,DateUTC
2013-01-07 00:00:00,16.9,-5.5,30.21,NW,306,0.0,0.0,36,0.00,CLR,OVC,0.00,WeatherDisplay:10.37,2013-01-07 06:00:00,
2013-01-07 00:05:00,16.9,-5.5,30.21,WNW,303,0.0,0.0,36,0.00,CLR,OVC,0.00,WeatherDisplay:10.37,2013-01-07 06:05:00,
2013-01-07 00:10:00,17.1,-5.4,30.21,NW,306,0.0,0.0,36,0.00,CLR,OVC,0.00,WeatherDisplay:10.37,2013-01-07 06:10:00,
2013-01-07 00:15:00,17.1,-5.4,30.21,NW,305,0.0,0.0,36,0.00,CLR,OVC,0.00,WeatherDisplay:10.37,2013-01-07 06:15:00,
2013-01-07 00:20:00,17.1,-5.4,30.21,NW,306,0.0,0.0,36,0.00,CLR,OVC,0.00,WeatherDisplay:10.37,2013-01-07 06:20:00,
2013-01-07 00:25:00,17.1,-5.4,30.21,NW,307,0.0,0.0,36,0.00,CLR,OVC,0.00,WeatherDisplay:10.37,2013-01-07 06:25:00,
2013-01-07 00:30:00,17.1,-5.4,30.21,NW,305,0.0,0.0,36,0.00,CLR,OVC,0.00,WeatherDisplay:10.37,2013-01-07 06:30:00,
2013-01-07 00:35:00,17.1,-5.4,30.21,SSE,147,0.0,0.0,36,0.00,CLR,OVC,0.00,WeatherDisplay:10.37,2013-01-07 06:35:00,
2013-01-07 00:40:00,17.1,-5.4,30.21,SSE,153,3.5,3.5,36,0.00,CLR,OVC,0.00,WeatherDisplay:10.37,2013-01-07 06:40:00,
2013-01-07 00:45:00,17.2,-5.2,30.21,SSE,161,0.0,0.0,36,0.00,CLR,OVC,0.00,WeatherDisplay:10.37,2013-01-07 06:45:00,
2013-01-07 00:50:00,17.4,-5.0,30.21,South,169,0.0,0.0,36,0.00,CLR,OVC,0.00,WeatherDisplay:10.37,2013-01-07 06:50:00,
2013-01-07 00:55:00,17.4,-5.0,30.21,South,173,0.0,0.0,36,0.00,CLR,OVC,0.00,WeatherDisplay:10.37,2013-01-07 06:55:00,
2013-01-07 01:00:00,17.6,-4.9,30.21,South,172,0.0,0.0,36,0.00,CLR,OVC,0.00,WeatherDisplay:10.37,2013-01-07 07:00:00,
2013-01-07 01:05:00,17.6,-4.9,30.21,South,173,0.0,0.0,36,0.00,CLR,OVC,0.00,WeatherDisplay:10.37,2013-01-07 07:05:00,
2013-01-07 01:10:00,17.6,-4.9,30.21,South,170,0.0,0.0,36,0.00,CLR,OVC,0.00,WeatherDisplay:10.37,2013-01-07 07:10:00,
2013-01-07 01:15:00,17.6,-4.9,30.21,South,170,0.0,0.0,36,0.00,CLR,OVC,0.00,WeatherDisplay:10.37,2013-01-07 07:15:00,
2013-01-07 01:20:00,17.6,-4.9,30.21,South,174,0.0,0.0,36,0.00,CLR,OVC,0.00,WeatherDisplay:10.37,2013-01-07 07:20:00,
2013-01-07 01:25:00,17.6,-4.9,30.21,South,173,0.0,0.0,36,0.00,CLR,OVC,0.00,WeatherDisplay:10.37,2013-01-07 07:25:00,
2013-01-07 01:30:00,17.6,-4.9,30.21,South,178,3.5,3.5,36,0.00,CLR,OVC,0.00,WeatherDisplay:10.37,2013-01-07 07:30:00,
2013-01-07 01:35:00,17.4,-5.0,30.21,SSE,167,3.5,3.5,36,0.00,CLR,OVC,0.00,WeatherDisplay:10.37,2013-01-07 07:35:00,
2013-01-07 01:40:00,17.6,-4.9,30.21,SSE,168,2.3,0.0,36,0.00,CLR,OVC,0.00,WeatherDisplay:10.37,2013-01-07 07:40:00,
2013-01-07 01:45:00,17.6,-4.9,30.21,SSE,167,0.0,0.0,36,0.00,CLR,OVC,0.00,WeatherDisplay:10.37,2013-01-07 07:45:00,
2013-01-07 01:50:00,17.8,-4.7,30.21,South,169,3.5,3.5,36,0.00,CLR,OVC,0.00,WeatherDisplay:10.37,2013-01-07 07:50:00,
2013-01-07 01:55:00,18.0,-4.5,30.21,South,174,2.3,0.0,36,0.00,CLR,OVC,0.00,WeatherDisplay:10.37,2013-01-07 07:55:00,
2013-01-07 02:00:00,18.0,-4.5,30.21,South,175,3.5,3.5,36,0.00,CLR,OVC,0.00,WeatherDisplay:10.37,2013-01-07 08:00:00,
2013-01-07 02:05:00,18.1,-4.4,30.21,South,173,0.0,0.0,36,0.00,CLR,OVC,0.00,WeatherDisplay:10.37,2013-01-07 08:05:00,
2013-01-07 02:10:00,18.1,-4.4,30.21,South,175,0.0,0.0,36,0.00,CLR,OVC,0.00,WeatherDisplay:10.37,2013-01-07 08:10:00,
2013-01-07 02:15:00,18.1,-4.4,30.21,South,178,0.0,0.0,36,0.00,CLR,OVC,0.00,WeatherDisplay:10.37,2013-01-07 08:15:00,
2013-01-07 02:20:00,18.0,-5.1,30.21,South,175,0.0,0.0,35,0.00,CLR,OVC,0.00,WeatherDisplay:10.37,2013-01-07 08:20:00,
2013-01-07 02:25:00,18.0,-5.1,30.21,SSE,161,0.0,0.0,35,0.00,CLR,OVC,0.00,WeatherDisplay:10.37,2013-01-07 08:25:00,
2013-01-07 02:30:00,18.0,-5.1,30.21,SSE,159,0.0,0.0,35,0.00,CLR,OVC,0.00,WeatherDisplay:10.37,2013-01-07 08:30:00,
2013-01-07 02:35:00,18.0,-5.1,30.21,SSE,168,0.0,0.0,35,0.00,CLR,OVC,0.00,WeatherDisplay:10.37,2013-01-07 08:35:00,
2013-01-07 02:40:00,18.0,-5.1,30.21,South,171,0.0,0.0,35,0.00,CLR,OVC,0.00,WeatherDisplay:10.37,2013-01-07 08:40:00,
2013-01-07 02:45:00,18.1,-5.0,30.21,South,174,0.0,0.0,35,0.00,CLR,OVC,0.00,WeatherDisplay:10.37,2013-01-07 08:45:00,
2013-01-07 02:50:00,18.1,-4.4,30.21,South,170,3.5,0.0,36,0.00,CLR,OVC,0.00,WeatherDisplay:10.37,2013-01-07 08:50:00,
2013-01-07 02:55:00,18.3,-4.2,30.21,South,175,0.0,0.0,36,0.00,CLR,OVC,0.00,WeatherDisplay:10.37,2013-01-07 08:55:00,
2013-01-07 03:00:00,18.3,-4.2,30.21,SSE,160,3.5,0.0,36,0.00,CLR,OVC,0.00,WeatherDisplay:10.37,2013-01-07 09:00:00,
2013-01-07 03:05:00,18.3,-4.2,30.21,South,176,3.5,0.0,36,0.00,CLR,OVC,0.00,WeatherDisplay:10.37,2013-01-07 09:05:00,
2013-01-07 03:10:00,18.5,-4.1,30.21,South,170,3.5,3.5,36,0.00,CLR,OVC,0.00,WeatherDisplay:10.37,2013-01-07 09:10:00,
2013-01-07 03:15:00,18.5,-4.1,30.21,SSE,165,2.3,0.0,36,0.00,CLR,OVC,0.00,WeatherDisplay:10.37,2013-01-07 09:15:00,
2013-01-07 03:20:00,18.7,-3.9,30.21,South,176,3.5,3.5,36,0.00,CLR,OVC,0.00,WeatherDisplay:10.37,2013-01-07 09:20:00,
2013-01-07 03:25:00,18.7,-3.9,30.21,South,173,2.3,0.0,36,0.00,CLR,OVC,0.00,WeatherDisplay:10.37,2013-01-07 09:25:00,
2013-01-07 03:30:00,18.7,-3.9,30.21,SSE,165,3.5,3.5,36,0.00,CLR,OVC,0.00,WeatherDisplay:10.37,2013-01-07 09:30:00,
2013-01-07 03:35:00,18.7,-3.9,30.21,SSE,166,3.5,3.5,36,0.00,CLR,OVC,0.00,WeatherDisplay:10.37,2013-01-07 09:35:00,
2013-01-07 03:40:00,19.0,-3.6,30.21,SSE,165,3.5,3.5,36,0.00,CLR,OVC,0.00,WeatherDisplay:10.37,2013-01-07 09:40:00,
2013-01-07 03:45:00,19.2,-3.4,30.21,South,171,3.5,3.5,36,0.00,CLR,OVC,0.00,WeatherDisplay:10.37,2013-01-07 09:45:00,
2013-01-07 03:50:00,19.2,-3.4,30.21,South,175,3.5,3.5,36,0.00,CLR,OVC,0.00,WeatherDisplay:10.37,2013-01-07 09:50:00,
2013-01-07 03:55:00,19.4,-3.3,30.21,SSE,154,3.5,3.5,36,0.00,CLR,OVC,0.00,WeatherDisplay:10.37,2013-01-07 09:55:00,
2013-01-07 04:00:00,19.4,-3.3,30.21,SSE,158,3.5,3.5,36,0.00,CLR,OVC,0.00,WeatherDisplay:10.37,2013-01-07 10:00:00,
2013-01-07 04:05:00,19.4,-3.3,30.21,SSE,159,3.5,0.0,36,0.00,CLR,OVC,0.00,WeatherDisplay:10.37,2013-01-07 10:05:00,
2013-01-07 04:10:00,19.6,-3.1,30.18,SSE,163,2.3,0.0,36,0.00,CLR,OVC,0.00,WeatherDisplay:10.37,2013-01-07 10:10:00,
2013-01-07 04:15:00,19.6,-3.1,30.18,SSE,165,3.5,3.5,36,0.00,CLR,OVC,0.00,WeatherDisplay:10.37,2013-01-07 10:15:00,
2013-01-07 04:20:00,19.8,-2.9,30.18,South,183,5.8,5.8,36,0.00,CLR,OVC,0.00,WeatherDisplay:10.37,2013-01-07 10:20:00,
2013-01-07 04:25:00,19.9,-2.2,30.18,South,187,3.5,3.5,37,0.00,CLR,OVC,0.00,WeatherDisplay:10.37,2013-01-07 10:25:00,
2013-01-07 04:30:00,20.3,-1.9,30.18,SSE,168,5.8,5.8,37,0.00,CLR,OVC,0.00,WeatherDisplay:10.37,2013-01-07 10:30:00,
2013-01-07 04:35:00,20.5,-1.7,30.18,South,169,5.8,5.8,37,0.00,CLR,OVC,0.00,WeatherDisplay:10.37,2013-01-07 10:35:00,
2013-01-07 04:40:00,20.7,-1.5,30.18,SSE,154,3.5,3.5,37,0.00,CLR,OVC,0.00,WeatherDisplay:10.37,2013-01-07 10:40:00,
2013-01-07 04:45:00,20.8,-1.4,30.18,South,179,3.5,3.5,37,0.00,CLR,OVC,0.00,WeatherDisplay:10.37,2013-01-07 10:45:00,
2013-01-07 04:50:00,21.0,-1.2,30.18,South,169,3.5,3.5,37,0.00,CLR,OVC,0.00,WeatherDisplay:10.37,2013-01-07 10:50:00,
2013-01-07 04:55:00,21.2,-1.1,30.18,SSE,160,3.5,3.5,37,0.00,CLR,OVC,0.00,WeatherDisplay:10.37,2013-01-07 10:55:00,
2013-01-07 05:00:00,21.2,-1.1,30.18,South,176,4.6,4.6,37,0.00,CLR,OVC,0.00,WeatherDisplay:10.37,2013-01-07 11:00:00,
2013-01-07 05:05:00,21.4,-0.9,30.18,SSE,168,3.5,3.5,37,0.00,CLR,OVC,0.00,WeatherDisplay:10.37,2013-01-07 11:05:00,
2013-01-07 05:10:00,21.4,-0.9,30.18,South,170,3.5,3.5,37,0.00,CLR,OVC,0.00,WeatherDisplay:10.37,2013-01-07 11:10:00,
2013-01-07 05:15:00,21.6,-1.3,30.18,South,178,3.5,3.6,36,0.00,CLR,OVC,0.00,WeatherDisplay:10.37,2013-01-07 11:15:00,
2013-01-07 05:20:00,21.6,-1.3,30.18,South,174,3.5,3.5,36,0.00,CLR,OVC,0.00,WeatherDisplay:10.37,2013-01-07 11:20:00,
2013-01-07 05:25:00,21.6,-1.3,30.18,SSE,158,3.5,3.5,36,0.00,CLR,OVC,0.00,WeatherDisplay:10.37,2013-01-07 11:25:00,
2013-01-07 05:30:00,21.6,-1.3,30.18,SSE,164,3.5,3.5,36,0.00,CLR,OVC,0.00,WeatherDisplay:10.37,2013-01-07 11:30:00,
2013-01-07 05:35:00,21.6,-1.3,30.18,South,172,3.5,3.5,36,0.00,CLR,OVC,0.00,WeatherDisplay:10.37,2013-01-07 11:35:00,
2013-01-07 05:40:00,21.6,-1.3,30.18,SSE,158,3.5,3.5,36,0.00,CLR,OVC,0.00,WeatherDisplay:10.37,2013-01-07 11:40:00,
2013-01-07 05:45:00,21.7,-0.6,30.18,SSE,147,3.5,3.5,37,0.00,CLR,OVC,0.00,WeatherDisplay:10.37,2013-01-07 11:45:00,
2013-01-07 05:50:00,21.9,-0.4,30.18,SSW,198,5.8,5.8,37,0.00,CLR,OVC,0.00,WeatherDisplay:10.37,2013-01-07 11:50:00,
2013-01-07 05:56:00,21.9,-0.4,30.18,South,172,4.6,4.6,37,0.00,CLR,OVC,0.00,WeatherDisplay:10.37,2013-01-07 11:56:00,
2013-01-07 06:01:00,22.1,-0.3,30.18,South,187,5.8,5.8,37,0.00,CLR,OVC,0.00,WeatherDisplay:10.37,2013-01-07 12:01:00,
2013-01-07 06:06:00,22.3,-0.1,30.18,South,180,3.5,3.6,37,0.00,CLR,OVC,0.00,WeatherDisplay:10.37,2013-01-07 12:06:00,
2013-01-07 06:11:00,22.5,0.1,30.18,South,185,5.8,5.8,37,0.00,CLR,OVC,0.00,WeatherDisplay:10.37,2013-01-07 12:11:00,
2013-01-07 06:16:00,22.6,0.2,30.18,South,182,5.8,5.8,37,0.00,CLR,OVC,0.00,WeatherDisplay:10.37,2013-01-07 12:16:00,
2013-01-07 06:21:00,22.6,0.2,30.18,SSE,150,5.8,5.8,37,0.00,CLR,OVC,0.00,WeatherDisplay:10.37,2013-01-07 12:21:00,
2013-01-07 06:26:00,22.6,0.2,30.15,South,172,4.6,4.6,37,0.00,CLR,OVC,0.00,WeatherDisplay:10.37,2013-01-07 12:26:00,
2013-01-07 06:31:00,22.6,0.2,30.15,South,186,5.8,5.8,37,0.00,CLR,OVC,0.00,WeatherDisplay:10.37,2013-01-07 12:31:00,
2013-01-07 06:36:00,22.8,-0.2,30.15,SSW,194,5.8,5.8,36,0.00,CLR,OVC,0.00,WeatherDisplay:10.37,2013-01-07 12:36:00,
2013-01-07 06:41:00,22.8,-0.2,30.15,South,184,6.3,6.3,36,0.00,CLR,OVC,0.00,WeatherDisplay:10.37,2013-01-07 12:41:00,
2013-01-07 06:46:00,22.8,-0.2,30.15,SSE,155,4.6,4.6,36,0.00,CLR,OVC,0.00,WeatherDisplay:10.37,2013-01-07 12:46:00,
2013-01-07 06:51:00,22.8,-0.2,30.15,SSE,158,10.4,10.4,36,0.00,CLR,OVC,0.00,WeatherDisplay:10.37,2013-01-07 12:51:00,
2013-01-07 06:56:00,22.8,-0.2,30.15,SSE,164,5.8,5.8,36,0.00,CLR,OVC,0.00,WeatherDisplay:10.37,2013-01-07 12:56:00,
2013-01-07 07:01:00,22.8,-0.2,30.15,SSE,167,5.8,5.8,36,0.00,CLR,OVC,0.00,WeatherDisplay:10.37,2013-01-07 13:01:00,
2013-01-07 07:06:00,23.0,0.0,30.15,South,191,5.8,5.8,36,0.00,CLR,OVC,0.00,WeatherDisplay:10.37,2013-01-07 13:06:00,
2013-01-07 07:11:00,23.2,-0.5,30.15,South,180,3.5,6.3,35,0.00,CLR,OVC,0.00,WeatherDisplay:10.37,2013-01-07 13:11:00,
2013-01-07 07:16:00,23.2,-0.5,30.15,South,173,5.8,5.8,35,0.00,CLR,OVC,0.00,WeatherDisplay:10.37,2013-01-07 13:16:00,
2013-01-07 07:21:00,23.2,-0.5,30.15,South,190,5.8,5.8,35,0.00,CLR,OVC,0.00,WeatherDisplay:10.37,2013-01-07 13:21:00,
2013-01-07 07:26:00,23.2,-0.5,30.15,SSE,166,5.8,5.8,35,0.00,CLR,OVC,0.00,WeatherDisplay:10.37,2013-01-07 13:26:00,
2013-01-07 07:31:00,23.2,-0.5,30.15,SSW,199,5.8,5.8,35,0.00,CLR,OVC,0.00,WeatherDisplay:10.37,2013-01-07 13:31:00,
2013-01-07 07:36:00,23.2,-0.5,30.15,SSE,168,5.8,5.8,35,0.00,CLR,OVC,0.00,WeatherDisplay:10.37,2013-01-07 13:36:00,
2013-01-07 07:41:00,23.2,-0.5,30.15,SE,137,9.2,9.2,35,0.00,CLR,OVC,0.00,WeatherDisplay:10.37,2013-01-07 13:41:00,
2013-01-07 07:46:00,23.4,-0.9,30.15,SE,144,5.8,5.8,34,0.00,CLR,OVC,0.00,WeatherDisplay:10.37,2013-01-07 13:46:00,
2013-01-07 07:51:00,23.4,-0.9,30.15,South,181,5.8,5.8,34,0.00,CLR,OVC,0.00,WeatherDisplay:10.37,2013-01-07 13:51:00,
2013-01-07 07:56:00,23.5,-0.8,30.15,SSE,150,8.1,8.1,34,0.00,CLR,OVC,0.00,WeatherDisplay:10.37,2013-01-07 13:56:00,
2013-01-07 08:01:00,23.5,-0.8,30.15,South,191,5.8,5.8,34,0.00,CLR,OVC,0.00,WeatherDisplay:10.37,2013-01-07 14:01:00,
2013-01-07 08:06:00,23.5,-0.8,30.15,SSE,162,6.9,6.9,34,0.00,CLR,OVC,0.00,WeatherDisplay:10.37,2013-01-07 14:06:00,
2013-01-07 08:11:00,23.7,-0.6,30.15,South,186,8.1,8.1,34,0.00,CLR,OVC,0.00,WeatherDisplay:10.37,2013-01-07 14:11:00,
2013-01-07 08:16:00,23.9,-0.4,30.15,SSE,158,3.5,3.5,34,0.00,CLR,OVC,0.00,WeatherDisplay:10.37,2013-01-07 14:16:00,
2013-01-07 08:21:00,24.1,-0.9,30.15,SSE,159,5.8,5.8,33,0.00,CLR,OVC,0.00,WeatherDisplay:10.37,2013-01-07 14:21:00,
2013-01-07 08:26:00,24.4,-0.6,30.15,SSW,202,8.1,8.1,33,0.00,CLR,OVC,0.00,WeatherDisplay:10.37,2013-01-07 14:26:00,
2013-01-07 08:31:00,24.6,-0.4,30.15,South,170,5.8,5.8,33,0.00,CLR,OVC,0.00,WeatherDisplay:10.37,2013-01-07 14:31:00,
2013-01-07 08:36:00,24.8,-0.3,30.15,South,184,3.5,3.6,33,0.00,CLR,OVC,0.00,WeatherDisplay:10.37,2013-01-07 14:36:00,
2013-01-07 08:41:00,25.2,-0.6,30.15,South,184,4.6,4.9,32,0.00,CLR,OVC,0.00,WeatherDisplay:10.37,2013-01-07 14:41:00,
2013-01-07 08:46:00,25.3,-0.5,30.15,SE,134,5.8,5.8,32,0.00,CLR,OVC,0.00,WeatherDisplay:10.37,2013-01-07 14:46:00,
2013-01-07 08:51:00,25.7,-0.1,30.15,South,169,5.8,5.8,32,0.00,CLR,OVC,0.00,WeatherDisplay:10.37,2013-01-07 14:51:00,
2013-01-07 08:56:00,25.9,0.0,30.15,SSE,150,6.3,6.3,32,0.00,CLR,OVC,0.00,WeatherDisplay:10.37,2013-01-07 14:56:00,
2013-01-07 09:01:00,26.2,0.3,30.15,SSE,149,8.1,8.1,32,0.00,CLR,OVC,0.00,WeatherDisplay:10.37,2013-01-07 15:01:00,
2013-01-07 09:06:00,26.6,0.7,30.15,South,190,5.8,5.8,32,0.00,CLR,OVC,0.00,WeatherDisplay:10.37,2013-01-07 15:06:00,
2013-01-07 09:11:00,27.1,0.4,30.15,SSE,154,5.8,5.8,31,0.00,CLR,OVC,0.00,WeatherDisplay:10.37,2013-01-07 15:11:00,
2013-01-07 09:16:00,27.5,0.8,30.15,South,171,5.8,5.8,31,0.00,CLR,OVC,0.00,WeatherDisplay:10.37,2013-01-07 15:16:00,
2013-01-07 09:21:00,28.0,-0.9,30.15,SE,136,5.8,5.8,28,0.00,CLR,OVC,0.00,WeatherDisplay:10.37,2013-01-07 15:21:00,
2013-01-07 09:26:00,28.6,-2.9,30.15,SSE,160,9.2,9.2,25,0.00,CLR,OVC,0.00,WeatherDisplay:10.37,2013-01-07 15:26:00,
2013-01-07 09:31:00,28.9,-4.3,30.15,SSE,167,6.9,6.9,23,0.00,CLR,OVC,0.00,WeatherDisplay:10.37,2013-01-07 15:31:00,
2013-01-07 09:36:00,29.3,-4.0,30.15,SSE,161,8.1,8.1,23,0.00,CLR,OVC,0.00,WeatherDisplay:10.37,2013-01-07 15:36:00,
2013-01-07 09:41:00,29.7,-3.7,30.15,SW,224,5.8,5.8,23,0.00,CLR,OVC,0.00,WeatherDisplay:10.37,2013-01-07 15:41:00,
2013-01-07 09:46:00,30.0,-6.3,30.15,SW,235,5.8,5.8,20,0.00,CLR,OVC,0.00,WeatherDisplay:10.37,2013-01-07 15:46:00,
2013-01-07 09:51:00,30.2,-6.1,30.15,SSW,198,8.1,8.1,20,0.00,CLR,OVC,0.00,WeatherDisplay:10.37,2013-01-07 15:51:00,
2013-01-07 09:56:00,30.7,-5.7,30.15,SSE,148,9.2,9.2,20,0.00,CLR,OVC,0.00,WeatherDisplay:10.37,2013-01-07 15:56:00,
2013-01-07 10:01:00,31.1,-7.6,30.15,ESE,122,9.2,9.2,18,0.00,CLR,OVC,0.00,WeatherDisplay:10.37,2013-01-07 16:01:00,
2013-01-07 10:06:00,31.5,-7.3,30.15,South,179,9.2,9.2,18,0.00,CLR,OVC,0.00,WeatherDisplay:10.37,2013-01-07 16:06:00,
2013-01-07 10:11:00,31.8,-7.0,30.15,SE,140,5.8,5.8,18,0.00,CLR,OVC,0.00,WeatherDisplay:10.37,2013-01-07 16:11:00,
2013-01-07 10:16:00,32.2,-6.7,30.15,SE,143,5.8,7.6,18,0.00,CLR,OVC,0.00,WeatherDisplay:10.37,2013-01-07 16:16:00,
2013-01-07 10:21:00,32.5,-6.4,30.15,SSE,159,5.8,5.8,18,0.00,CLR,OVC,0.00,WeatherDisplay:10.37,2013-01-07 16:21:00,
2013-01-07 10:26:00,32.9,-6.1,30.15,SSE,151,6.9,6.9,18,0.00,CLR,OVC,0.00,WeatherDisplay:10.37,2013-01-07 16:26:00,
2013-01-07 10:31:00,33.3,-5.8,30.15,SE,137,8.1,0.0,18,0.00,CLR,OVC,0.00,WeatherDisplay:10.37,2013-01-07 16:31:00,
2013-01-07 10:36:00,33.6,-5.5,30.15,SSW,205,5.8,5.8,18,0.00,CLR,OVC,0.00,WeatherDisplay:10.37,2013-01-07 16:36:00,
2013-01-07 10:41:00,34.0,-6.4,30.15,SSE,153,5.8,5.8,17,0.00,CLR,OVC,0.00,WeatherDisplay:10.37,2013-01-07 16:41:00,
2013-01-07 10:46:00,34.2,-8.8,30.15,SSW,193,10.4,10.4,15,0.00,CLR,OVC,0.00,WeatherDisplay:10.37,2013-01-07 16:46:00,
2013-01-07 10:51:00,34.5,-8.5,30.15,South,186,11.5,11.5,15,0.00,CLR,OVC,0.00,WeatherDisplay:10.37,2013-01-07 16:51:00,
2013-01-07 10:56:00,34.7,-8.3,30.12,SSW,202,10.4,10.4,15,0.00,CLR,OVC,0.00,WeatherDisplay:10.37,2013-01-07 16:56:00,
2013-01-07 11:01:00,34.9,-8.2,30.12,SSE,150,5.8,5.8,15,0.00,CLR,OVC,0.00,WeatherDisplay:10.37,2013-01-07 17:01:00,
2013-01-07 11:06:00,34.9,-8.2,30.12,SE,146,8.1,8.1,15,0.00,CLR,OVC,0.00,WeatherDisplay:10.37,2013-01-07 17:06:00,
2013-01-07 11:11:00,35.1,-8.0,30.12,SSE,151,5.8,5.8,15,0.00,CLR,OVC,0.00,WeatherDisplay:10.37,2013-01-07 17:11:00,
2013-01-07 11:16:00,35.4,-7.8,30.12,SW,221,9.2,9.2,15,0.00,CLR,OVC,0.00,WeatherDisplay:10.37,2013-01-07 17:16:00,
2013-01-07 11:21:00,35.4,-7.8,30.12,SSE,150,5.8,5.8,15,0.00,CLR,OVC,0.00,WeatherDisplay:10.37,2013-01-07 17:21:00,
2013-01-07 11:26:00,35.6,-9.0,30.09,South,183,5.8,5.8,14,0.00,CLR,OVC,0.00,WeatherDisplay:10.37,2013-01-07 17:26:00,
2013-01-07 11:31:00,35.8,-8.9,30.09,South,186,8.1,8.1,14,0.00,CLR,OVC,0.00,WeatherDisplay:10.37,2013-01-07 17:31:00,
2013-01-07 11:36:00,35.8,-8.9,30.09,South,188,5.8,5.8,14,0.00,CLR,OVC,0.00,WeatherDisplay:10.37,2013-01-07 17:36:00,
2013-01-07 11:41:00,36.0,-8.7,30.09,SSE,161,6.3,6.3,14,0.00,CLR,OVC,0.00,WeatherDisplay:10.37,2013-01-07 17:41:00,
2013-01-07 11:46:00,36.1,-8.6,30.09,SW,222,6.9,7.6,14,0.00,CLR,OVC,0.00,WeatherDisplay:10.37,2013-01-07 17:46:00,
2013-01-07 11:51:00,36.3,-8.4,30.09,SSE,163,10.4,10.4,14,0.00,CLR,OVC,0.00,WeatherDisplay:10.37,2013-01-07 17:51:00,
2013-01-07 11:56:00,36.3,-8.4,30.06,SSE,158,9.2,9.2,14,0.00,CLR,OVC,0.00,WeatherDisplay:10.37,2013-01-07 17:56:00,
2013-01-07 12:01:00,36.3,-8.4,30.06,West,259,5.8,5.8,14,0.00,CLR,OVC,0.00,WeatherDisplay:10.37,2013-01-07 18:01:00,
2013-01-07 12:06:00,36.5,-8.3,30.06,SSE,162,10.4,10.4,14,0.00,CLR,OVC,0.00,WeatherDisplay:10.37,2013-01-07 18:06:00,
2013-01-07 12:11:00,36.9,-8.0,30.06,SE,127,8.1,8.1,14,0.00,CLR,OVC,0.00,WeatherDisplay:10.37,2013-01-07 18:11:00,
2013-01-07 12:16:00,37.0,-7.9,30.06,South,189,9.2,9.2,14,0.00,CLR,OVC,0.00,WeatherDisplay:10.37,2013-01-07 18:16:00,
2013-01-07 12:21:00,37.2,-7.7,30.06,South,184,5.8,5.8,14,0.00,CLR,OVC,0.00,WeatherDisplay:10.37,2013-01-07 18:21:00,
2013-01-07 12:26:00,37.6,-7.4,30.03,South,172,8.1,8.1,14,0.00,CLR,OVC,0.00,WeatherDisplay:10.37,2013-01-07 18:26:00,
2013-01-07 12:31:00,37.6,-7.4,30.03,South,171,3.5,4.0,14,0.00,CLR,OVC,0.00,WeatherDisplay:10.37,2013-01-07 18:31:00,
2013-01-07 12:36:00,37.8,-7.3,30.03,SW,218,8.1,8.1,14,0.00,CLR,OVC,0.00,WeatherDisplay:10.37,2013-01-07 18:36:00,
2013-01-07 12:41:00,38.1,-7.0,30.06,SSE,149,4.6,4.6,14,0.00,CLR,OVC,0.00,WeatherDisplay:10.37,2013-01-07 18:41:00,
2013-01-07 12:46:00,38.5,-6.7,30.06,West,280,5.8,0.0,14,0.00,CLR,OVC,0.00,WeatherDisplay:10.37,2013-01-07 18:46:00,
2013-01-07 12:51:00,38.7,-6.5,30.06,SE,142,3.5,3.5,14,0.00,CLR,OVC,0.00,WeatherDisplay:10.37,2013-01-07 18:51:00,
2013-01-07 12:56:00,39.0,-6.3,30.03,SE,135,3.5,4.5,14,0.00,CLR,OVC,0.00,WeatherDisplay:10.37,2013-01-07 18:56:00,
2013-01-07 13:01:00,39.4,-7.5,30.03,SSW,209,5.8,5.8,13,0.00,CLR,OVC,0.00,WeatherDisplay:10.37,2013-01-07 19:01:00,
2013-01-07 13:06:00,39.7,-7.2,30.03,South,179,5.8,5.8,13,0.00,CLR,OVC,0.00,WeatherDisplay:10.37,2013-01-07 19:06:00,
2013-01-07 13:11:00,39.9,-7.1,30.03,SSW,202,10.4,10.4,13,0.00,CLR,OVC,0.00,WeatherDisplay:10.37,2013-01-07 19:11:00,
2013-01-07 13:16:00,39.9,-7.1,30.03,South,170,5.8,6.7,13,0.00,CLR,OVC,0.00,WeatherDisplay:10.37,2013-01-07 19:16:00,
2013-01-07 13:21:00,40.1,-6.9,30.03,South,182,8.1,8.1,13,0.00,CLR,OVC,0.00,WeatherDisplay:10.37,2013-01-07 19:21:00,
2013-01-07 13:26:00,40.1,-6.9,30.03,SSW,196,5.8,5.8,13,0.00,CLR,OVC,0.00,WeatherDisplay:10.37,2013-01-07 19:26:00,
2013-01-07 13:31:00,40.1,-6.9,30.03,SSW,199,8.1,8.1,13,0.00,CLR,OVC,0.00,WeatherDisplay:10.37,2013-01-07 19:31:00,
2013-01-07 13:36:00,40.1,-6.9,30.03,South,187,10.4,10.4,13,0.00,CLR,OVC,0.00,WeatherDisplay:10.37,2013-01-07 19:36:00,
2013-01-07 13:41:00,39.9,-7.1,30.03,South,174,8.1,8.1,13,0.00,CLR,OVC,0.00,WeatherDisplay:10.37,2013-01-07 19:41:00,
2013-01-07 13:46:00,40.1,-6.9,30.03,SSE,157,8.1,8.1,13,0.00,CLR,OVC,0.00,WeatherDisplay:10.37,2013-01-07 19:46:00,
2013-01-07 13:51:00,40.3,-6.8,30.03,SE,143,3.5,3.6,13,0.00,CLR,OVC,0.00,WeatherDisplay:10.37,2013-01-07 19:51:00,
2013-01-07 13:56:00,40.3,-6.8,30.03,South,177,3.5,3.6,13,0.00,CLR,OVC,0.00,WeatherDisplay:10.37,2013-01-07 19:56:00,
2013-01-07 14:01:00,40.3,-6.8,30.03,SW,216,5.8,5.8,13,0.00,CLR,OVC,0.00,WeatherDisplay:10.37,2013-01-07 20:01:00,
2013-01-07 14:06:00,40.3,-6.8,30.03,SSE,162,5.8,6.7,13,0.00,CLR,OVC,0.00,WeatherDisplay:10.37,2013-01-07 20:06:00,
2013-01-07 14:11:00,40.3,-6.8,30.03,SE,145,6.9,6.9,13,0.00,CLR,OVC,0.00,WeatherDisplay:10.37,2013-01-07 20:11:00,
2013-01-07 14:16:00,40.3,-6.8,30.03,SSE,162,5.8,6.3,13,0.00,CLR,OVC,0.00,WeatherDisplay:10.37,2013-01-07 20:16:00,
2013-01-07 14:21:00,40.3,-6.8,30.03,South,187,8.1,8.1,13,0.00,CLR,OVC,0.00,WeatherDisplay:10.37,2013-01-07 20:21:00,
2013-01-07 14:22:00,40.3,-6.8,30.03,SSE,160,8.1,8.1,13,0.00,CLR,OVC,0.00,WeatherDisplay:10.37,2013-01-07 20:22:00,
2013-01-07 14:27:00,40.1,-6.9,30.00,SW,225,5.8,5.8,13,0.00,CLR,OVC,0.00,WeatherDisplay:10.37,2013-01-07 20:27:00,
2013-01-07 14:32:00,39.9,-7.1,30.00,South,172,5.8,5.8,13,0.00,CLR,OVC,0.00,WeatherDisplay:10.37,2013-01-07 20:32:00,
2013-01-07 14:37:00,39.7,-7.2,30.00,SSE,161,8.1,8.1,13,0.00,CLR,OVC,0.00,WeatherDisplay:10.37,2013-01-07 20:37:00,
2013-01-07 14:42:00,39.6,-7.4,30.03,SSE,152,8.1,8.1,13,0.00,CLR,OVC,0.00,WeatherDisplay:10.37,2013-01-07 20:42:00,
2013-01-07 14:47:00,39.4,-7.5,30.03,SSE,151,5.8,5.8,13,0.00,CLR,OVC,0.00,WeatherDisplay:10.37,2013-01-07 20:47:00,
2013-01-07 14:52:00,39.2,-7.6,30.03,SSE,150,5.8,5.8,13,0.00,CLR,OVC,0.00,WeatherDisplay:10.37,2013-01-07 20:52:00,
2013-01-07 14:57:00,39.2,-7.6,30.00,SSE,154,9.2,9.2,13,0.00,CLR,OVC,0.00,WeatherDisplay:10.37,2013-01-07 20:57:00,
2013-01-07 15:02:00,39.2,-7.6,30.00,SSE,165,5.8,5.8,13,0.00,CLR,OVC,0.00,WeatherDisplay:10.37,2013-01-07 21:02:00,
2013-01-07 15:07:00,39.2,-7.6,30.00,South,189,5.8,7.2,13,0.00,CLR,OVC,0.00,WeatherDisplay:10.37,2013-01-07 21:07:00,
2013-01-07 15:12:00,39.2,-7.6,30.00,SSE,156,5.8,5.8,13,0.00,CLR,OVC,0.00,WeatherDisplay:10.37,2013-01-07 21:12:00,
2013-01-07 15:17:00,39.0,-6.3,30.00,SSE,168,6.9,6.9,14,0.00,CLR,OVC,0.00,WeatherDisplay:10.37,2013-01-07 21:17:00,
2013-01-07 15:22:00,38.8,-6.4,30.00,South,181,5.8,5.8,14,0.00,CLR,OVC,0.00,WeatherDisplay:10.37,2013-01-07 21:22:00,
2013-01-07 15:27:00,38.7,-6.5,30.00,SSE,154,9.2,9.2,14,0.00,CLR,OVC,0.00,WeatherDisplay:10.37,2013-01-07 21:27:00,
2013-01-07 15:32:00,38.7,-6.5,30.00,SSE,147,5.8,5.8,14,0.00,CLR,OVC,0.00,WeatherDisplay:10.37,2013-01-07 21:32:00,
2013-01-07 15:37:00,38.5,-6.7,30.00,SSW,198,5.8,5.8,14,0.00,CLR,OVC,0.00,WeatherDisplay:10.37,2013-01-07 21:37:00,
2013-01-07 15:42:00,38.5,-6.7,30.00,South,170,11.5,11.5,14,0.00,CLR,OVC,0.00,WeatherDisplay:10.37,2013-01-07 21:42:00,
2013-01-07 15:47:00,38.5,-6.7,30.00,South,180,9.2,9.2,14,0.00,CLR,OVC,0.00,WeatherDisplay:10.37,2013-01-07 21:47:00,
2013-01-07 15:52:00,38.3,-6.8,30.00,SSW,205,5.8,5.8,14,0.00,CLR,OVC,0.00,WeatherDisplay:10.37,2013-01-07 21:52:00,
2013-01-07 15:57:00,38.3,-6.8,30.00,South,190,9.2,9.2,14,0.00,CLR,OVC,0.00,WeatherDisplay:10.37,2013-01-07 21:57:00,
2013-01-07 16:02:00,38.1,-7.0,30.00,South,173,6.9,6.9,14,0.00,CLR,OVC,0.00,WeatherDisplay:10.37,2013-01-07 22:02:00,
2013-01-07 16:07:00,37.9,-7.1,30.00,South,186,8.1,8.1,14,0.00,CLR,OVC,0.00,WeatherDisplay:10.37,2013-01-07 22:07:00,
2013-01-07 16:12:00,37.9,-7.1,30.00,South,177,8.1,8.1,14,0.00,CLR,OVC,0.00,WeatherDisplay:10.37,2013-01-07 22:12:00,
2013-01-07 16:17:00,37.8,-7.3,30.00,SSW,200,8.1,8.1,14,0.00,CLR,OVC,0.00,WeatherDisplay:10.37,2013-01-07 22:17:00,
2013-01-07 16:22:00,37.8,-7.3,30.00,South,171,8.1,8.1,14,0.00,CLR,OVC,0.00,WeatherDisplay:10.37,2013-01-07 22:22:00,
2013-01-07 16:27:00,37.6,-7.4,29.97,SSE,154,10.4,10.4,14,0.00,CLR,OVC,0.00,WeatherDisplay:10.37,2013-01-07 22:27:00,
2013-01-07 16:32:00,37.6,-7.4,29.97,South,175,9.2,9.2,14,0.00,CLR,OVC,0.00,WeatherDisplay:10.37,2013-01-07 22:32:00,
2013-01-07 16:37:00,37.4,-7.6,29.97,SSE,149,3.5,0.0,14,0.00,CLR,OVC,0.00,WeatherDisplay:10.37,2013-01-07 22:37:00,
2013-01-07 16:42:00,37.0,-7.9,30.00,SSW,192,3.5,0.0,14,0.00,CLR,OVC,0.00,WeatherDisplay:10.37,2013-01-07 22:42:00,
2013-01-07 16:47:00,36.9,-8.0,30.00,SW,215,3.5,3.5,14,0.00,CLR,OVC,0.00,WeatherDisplay:10.37,2013-01-07 22:47:00,
2013-01-07 16:52:00,36.7,-4.1,30.00,SSW,197,5.8,5.8,17,0.00,CLR,OVC,0.00,WeatherDisplay:10.37,2013-01-07 22:52:00,
2013-01-07 16:57:00,36.7,-4.1,30.00,SSE,154,0.0,0.0,17,0.00,CLR,OVC,0.00,WeatherDisplay:10.37,2013-01-07 22:57:00,
2013-01-07 17:02:00,36.5,-4.3,30.00,SSE,155,5.8,5.8,17,0.00,CLR,OVC,0.00,WeatherDisplay:10.37,2013-01-07 23:02:00,
2013-01-07 17:07:00,36.3,-4.4,30.00,SW,216,5.8,5.8,17,0.00,CLR,OVC,0.00,WeatherDisplay:10.37,2013-01-07 23:07:00,
2013-01-07 17:12:00,36.1,-4.6,30.00,SW,225,0.0,0.0,17,0.00,CLR,OVC,0.00,WeatherDisplay:10.37,2013-01-07 23:12:00,
2013-01-07 17:17:00,36.1,-4.6,30.00,SSW,200,5.8,5.8,17,0.00,CLR,OVC,0.00,WeatherDisplay:10.37,2013-01-07 23:17:00,
2013-01-07 17:22:00,36.0,-4.7,30.00,SSE,155,2.3,0.0,17,0.00,CLR,OVC,0.00,WeatherDisplay:10.37,2013-01-07 23:22:00,
2013-01-07 17:27:00,35.8,-4.9,30.03,West,280,3.5,3.5,17,0.00,CLR,OVC,0.00,WeatherDisplay:10.37,2013-01-07 23:27:00,
2013-01-07 17:32:00,35.6,-5.0,30.03,SSW,196,3.5,3.5,17,0.00,CLR,OVC,0.00,WeatherDisplay:10.37,2013-01-07 23:32:00,
2013-01-07 17:37:00,35.6,-5.0,30.03,SSE,164,3.5,3.5,17,0.00,CLR,OVC,0.00,WeatherDisplay:10.37,2013-01-07 23:37:00,
2013-01-07 17:42:00,35.6,-5.0,30.00,SSE,147,5.8,5.8,17,0.00,CLR,OVC,0.00,WeatherDisplay:10.37,2013-01-07 23:42:00,
2013-01-07 17:47:00,35.4,-5.2,30.00,South,171,4.6,4.6,17,0.00,CLR,OVC,0.00,WeatherDisplay:10.37,2013-01-07 23:47:00,
2013-01-07 17:52:00,35.2,-5.3,30.00,SSE,151,2.3,2.3,17,0.00,CLR,OVC,0.00,WeatherDisplay:10.37,2013-01-07 23:52:00,
2013-01-07 17:57:00,35.2,-5.3,30.00,SSE,163,5.8,5.8,17,0.00,CLR,OVC,0.00,WeatherDisplay:10.37,2013-01-07 23:57:00,
2013-01-07 18:02:00,35.2,-5.3,30.00,SSE,163,8.1,8.1,17,0.00,CLR,OVC,0.00,WeatherDisplay:10.37,2013-01-08 00:02:00,
2013-01-07 18:07:00,35.2,-5.3,30.00,South,175,5.8,5.8,17,0.00,CLR,OVC,0.00,WeatherDisplay:10.37,2013-01-08 00:07:00,
2013-01-07 18:12:00,35.2,-5.3,30.00,South,188,3.5,3.5,17,0.00,CLR,OVC,0.00,WeatherDisplay:10.37,2013-01-08 00:12:00,
2013-01-07 18:17:00,35.1,-5.5,30.00,SSW,204,5.8,5.8,17,0.00,CLR,OVC,0.00,WeatherDisplay:10.37,2013-01-08 00:17:00,
2013-01-07 18:22:00,35.2,-5.3,30.00,South,185,5.8,5.8,17,0.00,CLR,OVC,0.00,WeatherDisplay:10.37,2013-01-08 00:22:00,
2013-01-07 18:27:00,35.1,-5.5,30.00,South,169,5.8,5.8,17,0.00,CLR,OVC,0.00,WeatherDisplay:10.37,2013-01-08 00:27:00,
2013-01-07 18:32:00,35.1,-5.5,30.00,South,174,3.5,3.5,17,0.00,CLR,OVC,0.00,WeatherDisplay:10.37,2013-01-08 00:32:00,
2013-01-07 18:37:00,34.9,-5.6,30.00,South,188,3.5,3.5,17,0.00,CLR,OVC,0.00,WeatherDisplay:10.37,2013-01-08 00:37:00,
2013-01-07 18:42:00,34.7,-5.8,30.00,SSE,168,5.8,5.8,17,0.00,CLR,OVC,0.00,WeatherDisplay:10.37,2013-01-08 00:42:00,
2013-01-07 18:47:00,34.5,-5.9,30.00,SSE,165,3.5,3.5,17,0.00,CLR,OVC,0.00,WeatherDisplay:10.37,2013-01-08 00:47:00,
2013-01-07 18:52:00,34.5,-5.9,30.00,SSE,165,3.5,3.5,17,0.00,CLR,OVC,0.00,WeatherDisplay:10.37,2013-01-08 00:52:00,
2013-01-07 18:57:00,34.3,-6.1,30.00,South,169,3.5,3.5,17,0.00,CLR,OVC,0.00,WeatherDisplay:10.37,2013-01-08 00:57:00,
2013-01-07 19:02:00,34.3,-2.7,30.00,South,186,3.5,3.5,20,0.00,CLR,OVC,0.00,WeatherDisplay:10.37,2013-01-08 01:02:00,
2013-01-07 19:07:00,34.2,-2.8,30.00,SSE,159,3.5,3.5,20,0.00,CLR,OVC,0.00,WeatherDisplay:10.37,2013-01-08 01:07:00,
2013-01-07 19:12:00,34.2,-2.8,29.97,SE,146,3.5,3.5,20,0.00,CLR,OVC,0.00,WeatherDisplay:10.37,2013-01-08 01:12:00,
2013-01-07 19:17:00,34.0,-3.0,29.97,SSE,155,4.6,4.6,20,0.00,CLR,OVC,0.00,WeatherDisplay:10.37,2013-01-08 01:17:00,
2013-01-07 19:22:00,34.0,-3.0,29.97,South,179,4.6,0.0,20,0.00,CLR,OVC,0.00,WeatherDisplay:10.37,2013-01-08 01:22:00,
2013-01-07 19:27:00,33.8,-3.1,30.00,South,172,4.6,4.6,20,0.00,CLR,OVC,0.00,WeatherDisplay:10.37,2013-01-08 01:27:00,
2013-01-07 19:32:00,33.8,-3.1,30.00,SSE,164,3.5,3.5,20,0.00,CLR,OVC,0.00,WeatherDisplay:10.37,2013-01-08 01:32:00,
2013-01-07 19:37:00,33.8,-1.1,30.00,South,182,4.6,0.0,22,0.00,CLR,OVC,0.00,WeatherDisplay:10.37,2013-01-08 01:37:00,
2013-01-07 19:42:00,33.8,-1.1,30.00,South,177,3.5,3.5,22,0.00,CLR,OVC,0.00,WeatherDisplay:10.37,2013-01-08 01:42:00,
2013-01-07 19:47:00,33.6,-0.3,30.00,South,182,3.5,0.0,23,0.00,CLR,OVC,0.00,WeatherDisplay:10.37,2013-01-08 01:47:00,
2013-01-07 19:52:00,33.6,-0.3,30.00,SSW,193,2.3,0.0,23,0.00,CLR,OVC,0.00,WeatherDisplay:10.37,2013-01-08 01:52:00,
2013-01-07 19:57:00,33.6,-0.3,30.00,SSE,168,5.8,5.8,23,0.00,CLR,OVC,0.00,WeatherDisplay:10.37,2013-01-08 01:57:00,
2013-01-07 20:02:00,33.4,-0.5,30.00,South,174,3.5,3.5,23,0.00,CLR,OVC,0.00,WeatherDisplay:10.37,2013-01-08 02:02:00,
2013-01-07 20:07:00,33.3,-0.6,30.00,South,171,2.3,0.0,23,0.00,CLR,OVC,0.00,WeatherDisplay:10.37,2013-01-08 02:07:00,
2013-01-07 20:12:00,33.3,1.2,30.00,South,185,3.5,3.5,25,0.00,CLR,OVC,0.00,WeatherDisplay:10.37,2013-01-08 02:12:00,
2013-01-07 20:17:00,33.1,1.0,30.00,South,176,0.0,0.0,25,0.00,CLR,OVC,0.00,WeatherDisplay:10.37,2013-01-08 02:17:00,
2013-01-07 20:22:00,33.1,1.0,30.00,South,179,0.0,0.0,25,0.00,CLR,OVC,0.00,WeatherDisplay:10.37,2013-01-08 02:22:00,
2013-01-07 20:27:00,32.9,0.9,30.00,South,171,0.0,0.0,25,0.00,CLR,OVC,0.00,WeatherDisplay:10.37,2013-01-08 02:27:00,
2013-01-07 20:32:00,32.7,0.7,30.00,South,172,0.0,0.0,25,0.00,CLR,OVC,0.00,WeatherDisplay:10.37,2013-01-08 02:32:00,
2013-01-07 20:37:00,32.5,0.5,30.00,SSE,160,3.5,3.5,25,0.00,CLR,OVC,0.00,WeatherDisplay:10.37,2013-01-08 02:37:00,
2013-01-07 20:42:00,32.4,2.8,30.00,South,190,0.0,0.0,28,0.00,CLR,OVC,0.00,WeatherDisplay:10.37,2013-01-08 02:42:00,
2013-01-07 20:47:00,32.2,2.7,30.00,South,187,0.0,0.0,28,0.00,CLR,OVC,0.00,WeatherDisplay:10.37,2013-01-08 02:47:00,
2013-01-07 20:52:00,32.2,2.7,30.00,SSE,158,0.0,0.0,28,0.00,CLR,OVC,0.00,WeatherDisplay:10.37,2013-01-08 02:52:00,
2013-01-07 20:57:00,31.8,2.4,30.00,SSE,168,0.0,0.0,28,0.00,CLR,OVC,0.00,WeatherDisplay:10.37,2013-01-08 02:57:00,
2013-01-07 21:02:00,31.8,3.9,30.00,South,178,0.0,0.0,30,0.00,CLR,OVC,0.00,WeatherDisplay:10.37,2013-01-08 03:02:00,
2013-01-07 21:07:00,31.6,3.7,30.00,SSW,199,0.0,0.0,30,0.00,CLR,OVC,0.00,WeatherDisplay:10.37,2013-01-08 03:07:00,
2013-01-07 21:12:00,31.5,3.5,30.00,South,173,3.5,0.0,30,0.00,CLR,OVC,0.00,WeatherDisplay:10.37,2013-01-08 03:12:00,
2013-01-07 21:18:00,31.5,3.5,30.00,South,182,3.5,3.5,30,0.00,CLR,OVC,0.00,WeatherDisplay:10.37,2013-01-08 03:18:00,
2013-01-07 21:23:00,31.5,3.5,30.00,South,170,0.0,0.0,30,0.00,CLR,OVC,0.00,WeatherDisplay:10.37,2013-01-08 03:23:00,
2013-01-07 21:28:00,31.5,4.3,29.97,South,174,0.0,0.0,31,0.00,CLR,OVC,0.00,WeatherDisplay:10.37,2013-01-08 03:28:00,
2013-01-07 21:33:00,31.3,4.1,29.97,South,173,0.0,0.0,31,0.00,CLR,OVC,0.00,WeatherDisplay:10.37,2013-01-08 03:33:00,
2013-01-07 21:38:00,31.3,4.1,29.97,South,176,0.0,0.0,31,0.00,CLR,OVC,0.00,WeatherDisplay:10.37,2013-01-08 03:38:00,
2013-01-07 21:43:00,31.1,3.9,30.00,South,171,0.0,0.0,31,0.00,CLR,OVC,0.00,WeatherDisplay:10.37,2013-01-08 03:43:00,
2013-01-07 21:48:00,31.1,3.9,30.00,South,178,0.0,0.0,31,0.00,CLR,OVC,0.00,WeatherDisplay:10.37,2013-01-08 03:48:00,
2013-01-07 21:53:00,31.1,3.9,30.00,South,173,0.0,0.0,31,0.00,CLR,OVC,0.00,WeatherDisplay:10.37,2013-01-08 03:53:00,
2013-01-07 21:58:00,30.9,3.8,29.97,South,176,0.0,0.0,31,0.00,CLR,OVC,0.00,WeatherDisplay:10.37,2013-01-08 03:58:00,
2013-01-07 22:03:00,30.9,3.8,29.97,SW,217,0.0,0.0,31,0.00,CLR,OVC,0.00,WeatherDisplay:10.37,2013-01-08 04:03:00,
2013-01-07 22:08:00,30.7,3.6,29.97,SSE,165,0.0,0.0,31,0.00,CLR,OVC,0.00,WeatherDisplay:10.37,2013-01-08 04:08:00,
2013-01-07 22:13:00,30.6,3.5,29.97,SSE,154,0.0,0.0,31,0.00,CLR,OVC,0.00,WeatherDisplay:10.37,2013-01-08 04:13:00,
2013-01-07 22:18:00,30.6,3.5,29.97,South,177,0.0,0.0,31,0.00,CLR,OVC,0.00,WeatherDisplay:10.37,2013-01-08 04:18:00,
2013-01-07 22:23:00,30.6,4.1,29.97,South,170,0.0,0.0,32,0.00,CLR,OVC,0.00,WeatherDisplay:10.37,2013-01-08 04:23:00,
2013-01-07 22:28:00,30.6,4.1,30.00,SSE,168,0.0,0.0,32,0.00,CLR,OVC,0.00,WeatherDisplay:10.37,2013-01-08 04:28:00,
2013-01-07 22:33:00,30.6,4.1,30.00,SSE,165,3.5,0.0,32,0.00,CLR,OVC,0.00,WeatherDisplay:10.37,2013-01-08 04:33:00,
2013-01-07 22:38:00,30.7,4.3,30.00,South,181,0.0,0.0,32,0.00,CLR,OVC,0.00,WeatherDisplay:10.37,2013-01-08 04:38:00,
2013-01-07 22:43:00,30.7,4.3,30.00,South,173,0.0,0.0,32,0.00,CLR,OVC,0.00,WeatherDisplay:10.37,2013-01-08 04:43:00,
2013-01-07 22:48:00,30.9,5.1,30.00,South,175,0.0,0.0,33,0.00,CLR,OVC,0.00,WeatherDisplay:10.37,2013-01-08 04:48:00,
2013-01-07 22:53:00,30.9,5.1,30.00,South,184,0.0,0.0,33,0.00,CLR,OVC,0.00,WeatherDisplay:10.37,2013-01-08 04:53:00,
2013-01-07 22:58:00,31.1,5.3,30.00,SSE,166,0.0,0.0,33,0.00,CLR,OVC,0.00,WeatherDisplay:10.37,2013-01-08 04:58:00,
2013-01-07 23:01:00,31.1,5.3,30.00,South,186,3.5,3.5,33,0.00,CLR,OVC,0.00,WeatherDisplay:10.37,2013-01-08 05:01:00,
2013-01-07 23:02:00,31.1,5.3,30.00,SSW,197,3.5,3.5,33,0.00,CLR,OVC,0.00,WeatherDisplay:10.37,2013-01-08 05:02:00,
2013-01-07 23:03:00,31.1,5.3,30.00,South,175,3.5,3.5,33,0.00,CLR,OVC,0.00,WeatherDisplay:10.37,2013-01-08 05:03:00,
2013-01-07 23:08:00,31.3,5.5,30.00,South,179,3.5,3.5,33,0.00,CLR,OVC,0.00,WeatherDisplay:10.37,2013-01-08 05:08:00,
2013-01-07 23:13:00,31.5,5.6,29.97,South,187,3.5,3.6,33,0.00,CLR,OVC,0.00,WeatherDisplay:10.37,2013-01-08 05:13:00,
2013-01-07 23:18:00,31.6,5.8,29.97,SSE,157,3.5,3.6,33,0.00,CLR,OVC,0.00,WeatherDisplay:10.37,2013-01-08 05:18:00,
2013-01-07 23:23:00,32.0,6.1,29.97,South,171,3.5,3.5,33,0.00,CLR,OVC,0.00,WeatherDisplay:10.37,2013-01-08 05:23:00,
2013-01-07 23:28:00,32.0,6.1,29.97,SSE,155,4.6,4.6,33,0.00,CLR,OVC,0.00,WeatherDisplay:10.37,2013-01-08 05:28:00,
2013-01-07 23:33:00,31.8,5.9,29.97,South,183,3.5,3.5,33,0.00,CLR,OVC,0.00,WeatherDisplay:10.37,2013-01-08 05:33:00,
2013-01-07 23:38:00,31.8,5.9,29.97,SSE,165,3.5,3.5,33,0.00,CLR,OVC,0.00,WeatherDisplay:10.37,2013-01-08 05:38:00,
2013-01-07 23:43:00,31.6,5.1,30.00,South,174,4.6,4.6,32,0.00,CLR,OVC,0.00,WeatherDisplay:10.37,2013-01-08 05:43:00,
2013-01-07 23:48:00,31.6,5.8,30.00,South,187,4.6,4.6,33,0.00,CLR,OVC,0.00,WeatherDisplay:10.37,2013-01-08 05:48:00,
2013-01-07 23:53:00,31.8,5.9,30.00,SSE,159,3.5,3.5,33,0.00,CLR,OVC,0.00,WeatherDisplay:10.37,2013-01-08 05:53:00,
2013-01-07 23:58:00,31.8,5.9,30.00,SSE,154,3.5,3.6,33,0.00,CLR,OVC,0.00,WeatherDisplay:10.37,2013-01-08 05:58:00,